Regional Weather Roundup
Issued by NWS

Home | Current Version | Previous Version | Text Only | Print | Product List | Glossary On
Versions: 1 2 3 4 5 6 7 8 9 10 11 12 13 14 15 16 17 18 19 20 21 22 23 24 25 26 27 28 29 30 31 32 33 34 35 36 37 38 39 40 41 42 43 44 45 46 47 48 49
000
ASUS45 KREV 262010
RWRNV
NEVADA REGIONAL WEATHER ROUNDUP
NATIONAL WEATHER SERVICE RENO NV
1200 PM PST WED NOV 26 2014

NOTE: "FAIR" INDICATES FEW OR NO CLOUDS BELOW 12,000 FEET WITH NO
SIGNIFICANT WEATHER AND/OR OBSTRUCTIONS TO VISIBILITY.

NVZ001-003-004-262100-
WESTERN NEVADA

CITY           SKY/WX    TMP DP  RH WIND       PRES   REMARKS
RENO           MOSUNNY   58  27  30 CALM      30.38F
CARSON CITY    FAIR      59  23  25 CALM      30.39F
MINDEN         FAIR      63  27  25 CALM      30.40
SLIDE MTN        N/A     50  25  37 W14         N/A
PYRAMID LAKE     N/A     50 N/A N/A N5          N/A
FALLON         MOSUNNY   61  23  23 VRB5      30.37F
LOVELOCK       SUNNY     54  27  35 CALM      30.38F
HAWTHORNE      SUNNY     57  30  35 CALM      30.39F
$$

NVZ002-CAZ072-073-262100-
NORTHERN AND CENTRAL SIERRA

CITY           SKY/WX    TMP DP  RH WIND       PRES   REMARKS
S. LAKE TAHOE  SUNNY     59  37  44 NE3       30.46F
TRUCKEE        SUNNY     57  34  41 CALM      30.44F
SQUAW VLY 8000 NOT AVBL
BLUE CANYON    SUNNY     65  24  21 VRB7      30.43F
MAMMOTH LAKES  FAIR      61  16  17 SE3       30.52F
BRIDGEPORT     FAIR      64  18  17 SW9       30.45F
$$

NVZ030-031-036-262100-
NORTHERN NEVADA

CITY           SKY/WX    TMP DP  RH WIND       PRES   REMARKS
ELKO           SUNNY     54  33  45 CALM      30.39F
WINNEMUCCA     MOSUNNY   56  31  38 CALM      30.37F
WENDOVER       SUNNY     52  34  50 E8        30.37F
$$

NVZ035-037-262100-
CENTRAL NEVADA

CITY           SKY/WX    TMP DP  RH WIND       PRES   REMARKS
ELY            SUNNY     59  32  36 CALM      30.45F
EUREKA           N/A     59  23  25 S6        30.42F
$$

NVZ013-014-262100-
SOUTH CENTRAL NEVADA

CITY           SKY/WX    TMP DP  RH WIND       PRES   REMARKS
TONOPAH        SUNNY     55  17  22 SE3       30.45F
$$

NVZ017-020-022-262100-
SOUTHERN NEVADA

CITY           SKY/WX    TMP DP  RH WIND       PRES   REMARKS
LAS VEGAS      SUNNY     64  14  14 CALM      30.32F
N. LAS VEGAS   SUNNY     63  12  13 E3        30.35F
NELLIS AFB     SUNNY     61  17  18 SW3       30.36F
HENDERSON      SUNNY     65  13  13 CALM      30.37F
MERCURY        SUNNY     69  15  12 CALM      30.35F
$$


USA.gov is the U.S. government's official web portal to all federal, state and local government web resources and services.